SCP
-0 -0 -0 -0 -0 -0 -0 -0 -0 -0 -0 -0 -0 -0 -0 -0 -0 -0 -0 -0 -0 -0 -0 -0 -0 -0 -0 0 0 -0 -0 -0 -0 -0 -0 0 0 0 0 0 0 0 -0 0 -0 -0 -0
0 -0 -0 -0 -0 -0 -0 -0 -0 -0 -0 -0 -0 -0 -0 -0 -0 -0 -0 -0 -0 -0 -0 -0 -0 -0 -0 0 0 -0 -0 -0 -0 -0 -0 -0 -0 0 0 0 0 -0 0 -0 -0 -0 0
0 0 0 0 -0 -0 -0 -0 -0 -0 -0 -0 -0 -0 -0 -0 -0 -0 -0 -0 -0 -0 -0 -0 -0 -0 -0 0 0 -0 -0 0 0 0 0 0 0 -0 0 -0 0 -0 -0 -0 0 0 0
0 0 0 0 0 0 0 -0 -0 -0 -0 -0 -0 -0 -0 -0 -0 -0 -0 -0 -0 -0 -0 -0 -0 -0 0 0 -0 0 0 0 0 0 0 -0 0 0 0 0 0 -0 -0 -0 0 0 0
0 0 0 0 0 0 0 0 0 0 -0 -0 -0 -0 -0 -0 -0 -0 -0 -0 0 0 -0 0 0 0 0 0 0 0 0 0 0 0 0 0 0 0 0 0 0 0 0 0 0 0 0
0 0 0 0 0 0 0 0 0 0 0 0 -0 -0 -0 -0 -0 -0 -0 0 0 0 0 0 0 0 0 0 0 0 0 0 0 0 0 0 0 0 0 0 0 0 0 0 0 0 0
0 0 0 0 0 0 0 0 0 0 0 0 0 0 0 -0 -0 -0 0 0 0 0 0 0 0 0 0 0 0 0 0 0 0 0 0 0 0 0 0 0 0 0 0 0 0 0 0
0 -0 0 0 0 0 0 0 0 0 0 0 0 0 0 0 0 0 0 0 0 0 0 0 0 0 0 0 0 0 0 0 0 0 0 0 0 0 0 0 0 0 0 0 0 0 0
0 -0 -0 0 0 0 0 0 0 -0 0 0 0 0 0 0 0 0 0 0 -0 -0 0 0 0 0 0 0 0 0 0 0 0 0 0 0 0 0 0 0 0 0 0 0 0 0 0
0 0 0 -0 -0 -0 0 0 0 0 -0 0 0 0 0 0 0 0 0 0 -0 -0 0 0 0 0 0 0 0 0 0 0 0 0 0 0 0 0 0 0 0 0 0 0 0 0 0
-0 -0 0 0 0 0 -0 0 0 0 0 0 -0 -0 0 0 0 0 0 0 0 0 0 0 0 0 0 0 0 0 0 0 0 0 0 0 0 0 0 0 0 0 0 0 0 0 0
0 0 0 0 0 0 0 0 0 0 0 0 0 0 -0 0 0 0 0 0 0 0 0 0 0 0 0 0 0 0 0 0 0 0 0 0 0 0 0 0 0 0 0 0 0 0 0
0 0 0 0 0 0 0 0 0 0 0 0 0 0 0 0 0 0 0 0 0 0 0 0 0 0 0 0 0 0 0 0 0 0 0 0 0 0 0 0 0 0 0 0 0 0 0
0 0 0 0 0 0 0 0 0 0 0 0 0 0 0 0 0 0 0 0 0 0 0 0 0 0 0 0 0 0 0 0 0 0 0 0 0 0 0 0 0 0 0 0 0 0 0
0 0 0 0 0 0 0 0 0 0 0 0 0 0 0 0 0 0 0 0 0 0 0 0 0 0 0 0 0 0 0 0 0 0 0 0 0 0 0 0 0 0 0 0 0 0 0
0 0 0 0 0 0 0 0 0 0 0 0 0 0 0 0 0 0 0 0 0 0 0 0 0 0 0 0 0 0 0 0 0 0 0 0 0 0 0 0 0 0 0 0 0 0 0
0 0 0 0 0 0 0 0 0 0 0 0 0 0 0 0 0 0 0 0 0 0 0 0 0 0 0 0 0 0 0 0 0 0 0 0 0 0 0 0 0 0 0 0 0 0 0
0 0 0 0 0 0 0 0 0 0 0 0 0 0 0 0 0 0 0 0 0 0 0 0 0 0 0 0 0 0 0 0 0 0 0 0 0 0 0 0 0 0 0 0 0 0 0
0 0 0 0 0 0 0 0 0 0 0 0 0 0 0 0 0 0 0 0 0 0 0 0 0 0 0 0 0 0 0 0 0 0 0 0 0 0 0 0 0 0 0 0 0 0 0
0 0 0 0 0 0 0 0 0 0 0 0 0 0 0 0 0 0 0 0 0 0 0 0 0 0 0 0 0 0 0 0 0 0 0 0 0 0 0 0 0 0 0 0 0 0 0
0 0 0 0 0 0 0 0 0 0 0 0 0 0 0 0 0 0 0 0 0 0 0 0 0 0 0 0 0 0 0 0 0 0 0 0 0 0 0 0 0 0 0 0 0 0 0
0 0 0 0 0 0 0 0 0 0 0 0 0 0 0 0 0 0 0 0 0 0 0 0 0 0 0 0 0 0 0 0 0 0 0 0 0 0 0 0 0 0 0 0 0 0 0
0 0 0 0 0 0 0 0 0 0 0 0 0 0 0 0 0 0 0 0 0 0 0 0 0 0 0 0 0 0 0 0 0 0 0 0 0 0 0 0 0 0 0 0 0 0 0
0 0 0 0 0 0 0 0 0 0 0 0 0 0 0 0 0 0 0 0 0 0 0 0 0 0 0 0 0 0 0 0 0 0 0 0 0 0 0 0 0 0 0 0 0 0 0
0 0 0 0 0 0 0 0 0 0 0 0 0 0 0 0 0 0 0 0 0 0 0 0 0 0 0 0 0 0 0 0 0 0 0 0 0 0 0 0 0 0 0 0 0 0 0
0 0 0 0 0 0 0 0 0 0 0 0 0 0 0 0 0 0 0 0 0 0 0 0 0 0 0 0 0 0 0 0 0 0 0 0 0 0 0 0 0 0 0 0 0 0 0
0 0 0 0 0 0 0 0 0 0 0 0 0 0 0 0 0 0 0 0 0 0 0 0 0 0 0 0 0 0 0 0 0 0 0 0 0 0 0 0 0 0 0 0 0 0 0
0 0 0 0 0 0 0 0 0 0 0 0 0 0 0 0 0 0 0 0 0 0 0 0 0 0 0 0 0 0 0 0 0 0 0 0 0 0 0 0 0 0 0 0 0 0 0
0 0 0 0 0 0 0 0 0 0 0 0 0 0 0 0 0 0 0 0 0 0 0 0 0 0 0 0 0 0 0 0 0 0 0 0 0 0 0 0 0 0 0 0 0 0 0
Wind_Speed_500mb
14 12 12 13 12 12 12 13 14 13 16 18 19 20 19 18 18 22 23 19 17 29 27 26 33 6 19 23 18 31 35 48 37 24 23 27 25 20 12 11 17 15 10 18 10 17 5
16 12 11 10 8 7 9 10 8 9 11 14 18 19 19 19 21 22 21 19 19 26 22 18 26 15 15 16 25 25 32 39 44 38 36 24 23 28 26 13 18 9 16 10 10 20 6
15 12 10 10 12 9 9 8 7 7 9 10 12 15 17 21 22 23 22 20 18 21 15 18 14 6 36 19 24 25 19 31 35 39 41 29 22 11 11 12 11 4 2 8 10 14 8
12 12 10 8 8 10 11 12 12 9 8 11 12 14 16 19 20 22 22 22 18 20 14 14 9 13 16 22 19 18 22 22 22 31 29 22 32 32 12 17 7 3 5 5 6 15 8
4 8 10 10 8 7 8 11 14 15 15 14 13 13 16 20 22 22 23 22 17 18 11 16 11 9 9 14 28 22 24 24 15 19 29 25 26 21 4 2 4 7 5 11 7 7 5
9 5 5 9 12 12 12 13 14 15 17 19 19 18 17 17 21 24 24 20 12 16 7 7 8 9 12 12 26 34 19 23 22 18 15 14 8 10 12 8 4 2 5 9 12 3 7
12 10 8 8 10 11 13 14 15 17 16 16 18 20 19 19 20 22 24 13 10 4 33 18 11 7 10 15 16 34 23 21 19 20 9 16 17 13 16 15 10 8 9 17 10 11 11
12 13 13 13 13 15 18 16 14 14 15 15 15 16 18 18 19 23 21 11 16 6 8 14 13 12 17 15 14 32 15 11 19 9 5 7 11 9 3 8 8 4 14 13 17 7 13
12 13 13 14 16 19 18 19 19 19 16 16 17 18 17 17 14 12 19 18 12 10 3 9 13 10 11 13 11 26 20 9 11 11 14 12 7 5 3 5 15 2 5 10 12 21 22
14 14 12 14 17 19 19 19 19 20 19 21 20 19 19 17 8 12 12 14 11 11 8 6 7 9 11 6 6 22 15 7 9 7 8 11 5 1 1 5 7 3 10 12 19 14 8
17 15 15 15 16 16 20 21 20 19 20 19 16 18 17 13 6 5 5 11 13 6 6 5 5 5 12 8 5 11 20 10 9 6 2 4 5 3 4 6 3 6 11 11 9 11 14
22 23 21 18 17 17 17 18 18 21 21 19 18 15 13 10 7 6 7 8 5 10 9 2 5 4 3 5 3 6 6 11 9 3 11 8 4 6 11 5 10 14 12 11 6 5 3
29 27 26 24 20 19 19 19 17 17 19 19 18 14 11 9 6 5 7 3 9 6 2 3 1 3 2 5 3 9 4 5 4 7 3 6 6 6 5 8 6 8 6 5 8 4 9
40 39 34 30 28 24 21 23 22 21 20 19 17 15 12 7 4 1 3 8 5 3 9 0 5 2 2 7 3 2 4 4 2 2 4 0 7 1 4 7 3 7 5 3 8 6 7
53 50 46 43 37 34 30 27 26 25 24 21 20 16 14 10 6 3 4 4 11 10 10 15 2 1 4 2 1 2 6 2 6 4 9 4 2 6 11 6 6 2 3 1 3 3 4
63 64 60 55 52 46 41 38 36 30 25 20 16 16 18 12 8 6 5 9 7 3 9 5 9 6 7 5 2 2 8 6 9 3 3 4 1 4 5 2 3 4 3 2 2 6 11
75 71 72 69 62 60 56 50 44 41 32 21 13 7 11 10 14 7 5 10 8 11 8 9 6 6 6 9 8 6 7 5 8 9 4 5 5 1 5 11 11 4 4 3 3 4 6
70 70 77 79 78 74 69 66 57 52 43 31 14 4 10 22 6 6 5 6 7 5 11 3 2 3 14 13 10 6 11 5 20 25 12 8 6 5 8 8 8 5 4 11 7 9 7
74 81 79 79 79 75 75 82 75 72 67 54 16 15 17 35 7 6 5 7 9 9 8 9 9 9 5 12 2 9 4 6 22 14 9 12 4 3 6 6 7 5 9 7 6 3 12
63 60 84 87 91 73 78 76 90 92 82 70 23 5 11 30 14 8 9 9 9 18 6 8 4 8 5 8 8 5 6 3 17 9 8 14 2 11 11 8 7 6 9 13 12 7 8
82 80 71 62 78 82 78 68 76 86 91 85 34 17 23 11 17 22 16 15 10 12 13 18 7 14 14 9 9 11 11 7 6 10 8 7 9 4 10 10 10 14 17 25 35 43 17
82 85 77 73 51 69 96 76 78 92 93 93 37 19 18 9 17 39 24 17 24 11 20 12 12 22 18 15 18 16 16 11 12 18 12 7 4 5 9 15 12 14 34 36 49 48 46
51 67 85 90 80 74 43 45 77 91 120 67 64 40 21 25 16 16 18 21 38 27 31 28 41 12 27 35 19 6 3 10 25 21 19 13 9 5 10 6 12 17 30 42 20 20 50
55 53 57 68 80 92 99 92 60 93 133 118 82 60 23 15 23 27 21 42 39 46 34 14 32 22 13 20 29 6 2 4 11 23 29 14 10 6 7 6 7 12 10 14 33 32 49
59 69 65 59 68 70 80 84 84 82 116 139 90 77 42 12 43 32 37 26 35 48 22 27 25 22 38 26 7 4 3 8 8 11 18 16 9 4 5 7 20 20 8 15 17 21 46
59 60 61 68 69 68 78 76 77 79 49 163 114 111 66 24 32 72 37 64 24 21 8 10 18 53 37 11 6 15 14 10 7 8 12 2 1 6 6 8 15 8 5 12 11 21 31
61 62 58 59 63 66 72 60 68 73 93 54 111 92 92 37 37 66 28 35 42 29 7 20 31 17 26 9 9 11 11 5 12 20 13 7 2 25 14 10 20 21 24 20 9 15 2
65 60 62 58 57 59 65 69 63 66 71 54 58 91 108 42 63 69 85 51 41 57 15 32 18 9 6 11 11 11 12 16 7 18 19 24 25 11 10 10 28 37 20 17 15 8 25
63 62 60 58 63 65 62 60 69 68 69 67 66 58 63 71 43 60 92 103 98 89 73 68 22 27 38 11 11 8 9 7 12 13 15 11 18 18 30 22 8 80 32 70 20 16 26
Wind_Direction_500mb
63 65 72 81 68 50 59 61 59 45 40 35 37 33 30 30 21 14 13 17 18 4 6 20 26 63 57 54 38 27 28 34 53 65 99 81 70 74 87 69 43 61 91 70 48 31 355
52 49 40 33 44 52 38 30 39 44 37 29 21 20 16 11 5 359 2 359 355 358 14 18 35 61 80 71 34 27 37 39 49 56 68 92 95 93 79 50 40 57 70 62 33 22 14
22 29 34 32 11 10 10 10 3 9 18 9 16 13 6 3 357 355 355 348 350 360 10 16 35 45 62 59 38 25 19 28 40 49 58 81 72 106 120 112 94 124 278 196 83 355 40
359 356 5 22 21 2 7 352 344 343 345 348 355 358 355 357 351 355 351 351 355 358 18 26 38 61 81 46 36 28 37 32 41 44 52 72 72 67 69 116 149 221 343 319 91 8 33
347 354 350 352 337 355 15 4 357 347 338 330 337 337 352 351 350 351 355 352 356 10 39 46 53 105 73 34 25 20 27 26 38 37 45 59 67 63 22 195 104 45 329 16 326 98 319
314 320 345 338 338 340 353 352 348 345 343 336 334 335 343 344 351 353 354 347 348 15 19 50 44 81 46 8 16 18 14 24 33 37 26 34 71 75 21 358 170 47 345 340 301 39 8
303 307 297 281 309 324 333 338 344 341 341 339 335 336 337 339 353 354 360 357 335 354 38 60 33 60 5 7 27 8 20 42 23 40 28 18 64 61 29 22 17 28 318 280 315 24 349
297 296 298 301 299 302 305 308 318 327 337 339 337 334 337 343 352 0 13 45 47 40 59 44 51 37 28 28 17 8 41 72 47 52 323 50 80 58 42 337 347 301 291 333 301 77 336
284 285 293 300 301 305 306 308 315 322 330 337 340 341 339 342 353 3 35 55 49 29 67 19 31 31 16 42 40 3 30 42 28 45 36 77 106 124 4 24 12 311 309 6 294 314 266
288 280 286 292 294 297 300 302 306 313 324 331 337 341 343 342 345 5 30 28 24 17 75 326 43 2 6 53 31 18 24 50 45 75 41 73 129 175 335 95 25 315 47 332 308 328 298
294 290 291 288 291 287 291 297 301 307 312 320 331 339 340 342 320 16 20 8 0 55 8 54 27 355 34 58 353 356 31 51 47 78 315 157 162 177 242 81 100 228 13 284 307 291 315
293 295 290 287 286 287 291 295 294 300 305 307 311 318 322 324 337 2 359 2 45 43 261 25 338 335 241 29 32 336 52 62 101 70 43 73 32 335 8 295 233 291 284 204 215 229 328
285 284 286 284 282 284 285 287 290 293 301 302 296 298 311 325 323 340 347 17 36 147 81 271 190 355 303 34 101 19 20 64 51 52 14 156 127 99 347 305 169 302 318 318 349 5 236
275 277 277 278 277 275 276 278 287 292 299 306 305 299 299 300 287 322 1 47 122 197 221 233 153 130 21 347 87 307 192 173 89 298 113 85 316 100 349 49 343 6 26 125 260 300 310
270 270 269 270 270 270 267 268 272 280 291 302 308 303 293 280 267 203 111 79 216 203 153 155 118 160 299 223 244 244 213 166 112 161 148 132 223 97 39 351 344 20 64 60 307 138 349
265 268 267 264 264 261 262 262 262 261 269 281 298 309 276 255 221 181 78 235 223 216 132 166 176 188 204 210 237 228 177 182 141 94 81 192 28 1 113 236 63 336 51 113 326 357 290
260 261 261 261 263 258 255 256 256 255 253 253 259 283 256 210 182 150 201 245 241 208 194 183 215 139 216 185 192 214 223 297 127 133 109 132 111 233 44 201 175 156 167 60 83 162 227
262 263 257 256 255 259 250 251 251 248 238 232 222 226 218 173 127 156 196 207 316 191 189 169 267 276 189 170 187 234 217 173 165 158 159 204 134 219 202 80 47 352 226 173 143 234 242
269 262 264 261 252 253 251 247 245 242 241 218 202 208 192 178 181 210 233 220 209 199 214 178 204 225 27 171 205 185 185 75 173 178 165 193 225 356 303 11 13 220 205 231 63 72 213
250 260 256 263 262 251 253 250 251 240 236 219 180 168 178 201 215 194 170 225 203 193 214 200 175 95 123 211 215 206 207 150 191 182 136 163 221 195 205 186 122 192 221 212 154 185 202
267 268 265 260 256 259 251 256 260 250 242 210 197 216 184 181 218 200 186 163 166 191 209 194 209 209 165 177 189 206 193 118 178 184 179 140 203 208 280 261 206 204 219 198 210 219 211
266 262 261 255 256 249 250 260 252 246 237 204 200 179 187 189 162 184 190 208 181 164 152 218 219 190 186 184 183 185 164 164 191 175 170 171 247 80 281 258 243 250 249 234 230 237 246
267 264 258 254 256 253 244 242 257 252 217 203 210 210 191 183 165 165 198 194 205 170 212 203 199 153 198 220 164 153 108 174 163 161 178 156 143 113 262 336 312 283 236 228 208 217 223
262 262 256 256 258 255 255 259 248 245 231 218 220 204 191 213 193 201 177 198 208 199 214 192 181 172 156 159 163 144 59 354 207 183 169 154 150 156 265 1 262 241 197 186 209 240 222
270 262 260 258 251 252 256 258 257 256 228 223 224 204 207 219 202 212 215 197 219 223 194 173 187 194 165 127 82 94 350 12 259 208 190 155 153 216 200 221 299 288 196 170 174 261 222
274 272 270 260 258 254 248 248 246 241 245 219 222 229 215 223 210 215 204 203 197 192 135 136 164 155 157 93 147 183 211 200 240 322 347 168 222 157 117 200 243 237 124 143 120 286 225
270 268 264 268 265 259 256 259 248 242 238 242 231 236 217 221 221 203 197 193 190 163 155 133 151 172 169 162 170 179 203 184 183 177 169 145 239 215 207 247 275 247 154 143 101 245 204
272 270 264 259 265 267 262 257 255 258 243 240 243 239 226 237 230 212 205 185 174 184 167 144 119 175 163 184 189 184 205 198 185 161 175 167 171 186 187 215 270 159 126 188 214 234 216
271 273 269 268 260 264 261 256 251 255 257 257 258 236 237 228 236 238 231 229 224 226 203 169 191 158 170 172 194 165 192 168 171 230 172 214 195 179 196 210 211 179 207 215 224 238 223
Wind_Speed_850mb
14 12 12 13 12 12 12 13 14 13 16 18 19 20 19 18 18 22 23 19 17 29 27 26 33 6 19 23 18 31 35 48 37 24 23 27 25 20 12 11 17 15 10 18 10 17 5
16 12 11 10 8 7 9 10 8 9 11 14 18 19 19 19 21 22 21 19 19 26 22 18 26 15 15 16 25 25 32 39 44 38 36 24 23 28 26 13 18 9 16 10 10 20 6
15 12 10 10 12 9 9 8 7 7 9 10 12 15 17 21 22 23 22 20 18 21 15 18 14 6 36 19 24 25 19 31 35 39 41 29 22 11 11 12 11 4 2 8 10 14 8
12 12 10 8 8 10 11 12 12 9 8 11 12 14 16 19 20 22 22 22 18 20 14 14 9 13 16 22 19 18 22 22 22 31 29 22 32 32 12 17 7 3 5 5 6 15 8
4 8 10 10 8 7 8 11 14 15 15 14 13 13 16 20 22 22 23 22 17 18 11 16 11 9 9 14 28 22 24 24 15 19 29 25 26 21 4 2 4 7 5 11 7 7 5
9 5 5 9 12 12 12 13 14 15 17 19 19 18 17 17 21 24 24 20 12 16 7 7 8 9 12 12 26 34 19 23 22 18 15 14 8 10 12 8 4 2 5 9 12 3 7
12 10 8 8 10 11 13 14 15 17 16 16 18 20 19 19 20 22 24 13 10 4 33 18 11 7 10 15 16 34 23 21 19 20 9 16 17 13 16 15 10 8 9 17 10 11 11
12 13 13 13 13 15 18 16 14 14 15 15 15 16 18 18 19 23 21 11 16 6 8 14 13 12 17 15 14 32 15 11 19 9 5 7 11 9 3 8 8 4 14 13 17 7 13
12 13 13 14 16 19 18 19 19 19 16 16 17 18 17 17 14 12 19 18 12 10 3 9 13 10 11 13 11 26 20 9 11 11 14 12 7 5 3 5 15 2 5 10 12 21 22
14 14 12 14 17 19 19 19 19 20 19 21 20 19 19 17 8 12 12 14 11 11 8 6 7 9 11 6 6 22 15 7 9 7 8 11 5 1 1 5 7 3 10 12 19 14 8
17 15 15 15 16 16 20 21 20 19 20 19 16 18 17 13 6 5 5 11 13 6 6 5 5 5 12 8 5 11 20 10 9 6 2 4 5 3 4 6 3 6 11 11 9 11 14
22 23 21 18 17 17 17 18 18 21 21 19 18 15 13 10 7 6 7 8 5 10 9 2 5 4 3 5 3 6 6 11 9 3 11 8 4 6 11 5 10 14 12 11 6 5 3
29 27 26 24 20 19 19 19 17 17 19 19 18 14 11 9 6 5 7 3 9 6 2 3 1 3 2 5 3 9 4 5 4 7 3 6 6 6 5 8 6 8 6 5 8 4 9
40 39 34 30 28 24 21 23 22 21 20 19 17 15 12 7 4 1 3 8 5 3 9 0 5 2 2 7 3 2 4 4 2 2 4 0 7 1 4 7 3 7 5 3 8 6 7
53 50 46 43 37 34 30 27 26 25 24 21 20 16 14 10 6 3 4 4 11 10 10 15 2 1 4 2 1 2 6 2 6 4 9 4 2 6 11 6 6 2 3 1 3 3 4
63 64 60 55 52 46 41 38 36 30 25 20 16 16 18 12 8 6 5 9 7 3 9 5 9 6 7 5 2 2 8 6 9 3 3 4 1 4 5 2 3 4 3 2 2 6 11
75 71 72 69 62 60 56 50 44 41 32 21 13 7 11 10 14 7 5 10 8 11 8 9 6 6 6 9 8 6 7 5 8 9 4 5 5 1 5 11 11 4 4 3 3 4 6
70 70 77 79 78 74 69 66 57 52 43 31 14 4 10 22 6 6 5 6 7 5 11 3 2 3 14 13 10 6 11 5 20 25 12 8 6 5 8 8 8 5 4 11 7 9 7
74 81 79 79 79 75 75 82 75 72 67 54 16 15 17 35 7 6 5 7 9 9 8 9 9 9 5 12 2 9 4 6 22 14 9 12 4 3 6 6 7 5 9 7 6 3 12
63 60 84 87 91 73 78 76 90 92 82 70 23 5 11 30 14 8 9 9 9 18 6 8 4 8 5 8 8 5 6 3 17 9 8 14 2 11 11 8 7 6 9 13 12 7 8
82 80 71 62 78 82 78 68 76 86 91 85 34 17 23 11 17 22 16 15 10 12 13 18 7 14 14 9 9 11 11 7 6 10 8 7 9 4 10 10 10 14 17 25 35 43 17
82 85 77 73 51 69 96 76 78 92 93 93 37 19 18 9 17 39 24 17 24 11 20 12 12 22 18 15 18 16 16 11 12 18 12 7 4 5 9 15 12 14 34 36 49 48 46
51 67 85 90 80 74 43 45 77 91 120 67 64 40 21 25 16 16 18 21 38 27 31 28 41 12 27 35 19 6 3 10 25 21 19 13 9 5 10 6 12 17 30 42 20 20 50
55 53 57 68 80 92 99 92 60 93 133 118 82 60 23 15 23 27 21 42 39 46 34 14 32 22 13 20 29 6 2 4 11 23 29 14 10 6 7 6 7 12 10 14 33 32 49
59 69 65 59 68 70 80 84 84 82 116 139 90 77 42 12 43 32 37 26 35 48 22 27 25 22 38 26 7 4 3 8 8 11 18 16 9 4 5 7 20 20 8 15 17 21 46
59 60 61 68 69 68 78 76 77 79 49 163 114 111 66 24 32 72 37 64 24 21 8 10 18 53 37 11 6 15 14 10 7 8 12 2 1 6 6 8 15 8 5 12 11 21 31
61 62 58 59 63 66 72 60 68 73 93 54 111 92 92 37 37 66 28 35 42 29 7 20 31 17 26 9 9 11 11 5 12 20 13 7 2 25 14 10 20 21 24 20 9 15 2
65 60 62 58 57 59 65 69 63 66 71 54 58 91 108 42 63 69 85 51 41 57 15 32 18 9 6 11 11 11 12 16 7 18 19 24 25 11 10 10 28 37 20 17 15 8 25
63 62 60 58 63 65 62 60 69 68 69 67 66 58 63 71 43 60 92 103 98 89 73 68 22 27 38 11 11 8 9 7 12 13 15 11 18 18 30 22 8 80 32 70 20 16 26
Wind_Direction_850mb
63 65 72 81 68 50 59 61 59 45 40 35 37 33 30 30 21 14 13 17 18 4 6 20 26 63 57 54 38 27 28 34 53 65 99 81 70 74 87 69 43 61 91 70 48 31 355
52 49 40 33 44 52 38 30 39 44 37 29 21 20 16 11 5 359 2 359 355 358 14 18 35 61 80 71 34 27 37 39 49 56 68 92 95 93 79 50 40 57 70 62 33 22 14
22 29 34 32 11 10 10 10 3 9 18 9 16 13 6 3 357 355 355 348 350 360 10 16 35 45 62 59 38 25 19 28 40 49 58 81 72 106 120 112 94 124 278 196 83 355 40
359 356 5 22 21 2 7 352 344 343 345 348 355 358 355 357 351 355 351 351 355 358 18 26 38 61 81 46 36 28 37 32 41 44 52 72 72 67 69 116 149 221 343 319 91 8 33
347 354 350 352 337 355 15 4 357 347 338 330 337 337 352 351 350 351 355 352 356 10 39 46 53 105 73 34 25 20 27 26 38 37 45 59 67 63 22 195 104 45 329 16 326 98 319
314 320 345 338 338 340 353 352 348 345 343 336 334 335 343 344 351 353 354 347 348 15 19 50 44 81 46 8 16 18 14 24 33 37 26 34 71 75 21 358 170 47 345 340 301 39 8
303 307 297 281 309 324 333 338 344 341 341 339 335 336 337 339 353 354 360 357 335 354 38 60 33 60 5 7 27 8 20 42 23 40 28 18 64 61 29 22 17 28 318 280 315 24 349
297 296 298 301 299 302 305 308 318 327 337 339 337 334 337 343 352 0 13 45 47 40 59 44 51 37 28 28 17 8 41 72 47 52 323 50 80 58 42 337 347 301 291 333 301 77 336
284 285 293 300 301 305 306 308 315 322 330 337 340 341 339 342 353 3 35 55 49 29 67 19 31 31 16 42 40 3 30 42 28 45 36 77 106 124 4 24 12 311 309 6 294 314 266
288 280 286 292 294 297 300 302 306 313 324 331 337 341 343 342 345 5 30 28 24 17 75 326 43 2 6 53 31 18 24 50 45 75 41 73 129 175 335 95 25 315 47 332 308 328 298
294 290 291 288 291 287 291 297 301 307 312 320 331 339 340 342 320 16 20 8 0 55 8 54 27 355 34 58 353 356 31 51 47 78 315 157 162 177 242 81 100 228 13 284 307 291 315
293 295 290 287 286 287 291 295 294 300 305 307 311 318 322 324 337 2 359 2 45 43 261 25 338 335 241 29 32 336 52 62 101 70 43 73 32 335 8 295 233 291 284 204 215 229 328
285 284 286 284 282 284 285 287 290 293 301 302 296 298 311 325 323 340 347 17 36 147 81 271 190 355 303 34 101 19 20 64 51 52 14 156 127 99 347 305 169 302 318 318 349 5 236
275 277 277 278 277 275 276 278 287 292 299 306 305 299 299 300 287 322 1 47 122 197 221 233 153 130 21 347 87 307 192 173 89 298 113 85 316 100 349 49 343 6 26 125 260 300 310
270 270 269 270 270 270 267 268 272 280 291 302 308 303 293 280 267 203 111 79 216 203 153 155 118 160 299 223 244 244 213 166 112 161 148 132 223 97 39 351 344 20 64 60 307 138 349
265 268 267 264 264 261 262 262 262 261 269 281 298 309 276 255 221 181 78 235 223 216 132 166 176 188 204 210 237 228 177 182 141 94 81 192 28 1 113 236 63 336 51 113 326 357 290
260 261 261 261 263 258 255 256 256 255 253 253 259 283 256 210 182 150 201 245 241 208 194 183 215 139 216 185 192 214 223 297 127 133 109 132 111 233 44 201 175 156 167 60 83 162 227
262 263 257 256 255 259 250 251 251 248 238 232 222 226 218 173 127 156 196 207 316 191 189 169 267 276 189 170 187 234 217 173 165 158 159 204 134 219 202 80 47 352 226 173 143 234 242
269 262 264 261 252 253 251 247 245 242 241 218 202 208 192 178 181 210 233 220 209 199 214 178 204 225 27 171 205 185 185 75 173 178 165 193 225 356 303 11 13 220 205 231 63 72 213
250 260 256 263 262 251 253 250 251 240 236 219 180 168 178 201 215 194 170 225 203 193 214 200 175 95 123 211 215 206 207 150 191 182 136 163 221 195 205 186 122 192 221 212 154 185 202
267 268 265 260 256 259 251 256 260 250 242 210 197 216 184 181 218 200 186 163 166 191 209 194 209 209 165 177 189 206 193 118 178 184 179 140 203 208 280 261 206 204 219 198 210 219 211
266 262 261 255 256 249 250 260 252 246 237 204 200 179 187 189 162 184 190 208 181 164 152 218 219 190 186 184 183 185 164 164 191 175 170 171 247 80 281 258 243 250 249 234 230 237 246
267 264 258 254 256 253 244 242 257 252 217 203 210 210 191 183 165 165 198 194 205 170 212 203 199 153 198 220 164 153 108 174 163 161 178 156 143 113 262 336 312 283 236 228 208 217 223
262 262 256 256 258 255 255 259 248 245 231 218 220 204 191 213 193 201 177 198 208 199 214 192 181 172 156 159 163 144 59 354 207 183 169 154 150 156 265 1 262 241 197 186 209 240 222
270 262 260 258 251 252 256 258 257 256 228 223 224 204 207 219 202 212 215 197 219 223 194 173 187 194 165 127 82 94 350 12 259 208 190 155 153 216 200 221 299 288 196 170 174 261 222
274 272 270 260 258 254 248 248 246 241 245 219 222 229 215 223 210 215 204 203 197 192 135 136 164 155 157 93 147 183 211 200 240 322 347 168 222 157 117 200 243 237 124 143 120 286 225
270 268 264 268 265 259 256 259 248 242 238 242 231 236 217 221 221 203 197 193 190 163 155 133 151 172 169 162 170 179 203 184 183 177 169 145 239 215 207 247 275 247 154 143 101 245 204
272 270 264 259 265 267 262 257 255 258 243 240 243 239 226 237 230 212 205 185 174 184 167 144 119 175 163 184 189 184 205 198 185 161 175 167 171 186 187 215 270 159 126 188 214 234 216
271 273 269 268 260 264 261 256 251 255 257 257 258 236 237 228 236 238 231 229 224 226 203 169 191 158 170 172 194 165 192 168 171 230 172 214 195 179 196 210 211 179 207 215 224 238 223